Cloud_Cover
0 0 0 0 0 0 0 0 0 0 0 0 0 0 0 0 0 2 1 14 3 2 14 5 6 79 97 100 92 67 92 84 5 47 27 100 100 100 40 10 0 0 0 0 0 0 0 0 0
0 0 0 0 0 0 0 0 0 0 0 0 0 0 0 0 0 0 0 0 0 0 21 0 0 4 74 15 77 52 72 100 95 24 100 100 100 62 8 7 0 0 0 0 0 0 0 0 0
0 0 0 0 0 0 0 0 0 0 0 0 0 0 0 0 0 0 0 0 0 3 6 0 0 0 92 100 18 97 87 100 100 93 67 81 15 0 1 0 0 0 0 0 0 0 0 0 0
0 0 0 0 0 0 0 0 0 0 0 0 0 0 0 0 0 0 0 0 0 2 5 0 0 0 65 100 30 5 53 72 100 100 100 71 26 1 0 0 0 0 0 0 0 0 0 0 0
0 0 0 0 0 0 0 0 0 0 0 0 0 0 0 0 0 0 0 0 0 0 4 4 0 0 97 100 16 2 5 5 36 100 100 100 93 5 3 0 0 0 0 0 0 0 0 0 0
0 0 0 0 0 0 0 0 0 0 0 0 0 0 0 0 0 0 0 0 0 0 1 14 18 0 34 8 1 0 23 7 89 56 100 100 100 61 25 19 0 0 0 0 0 0 0 0 0
0 0 0 0 0 0 0 0 0 0 0 0 0 0 0 0 0 0 0 0 0 0 0 0 5 4 0 0 0 0 34 5 71 100 100 100 100 100 97 72 5 3 0 0 2 1 5 5 0
0 0 0 0 0 0 0 0 0 0 0 0 0 0 0 0 0 0 0 0 0 0 14 0 1 39 52 0 0 37 49 0 97 100 100 100 100 100 100 100 75 98 79 53 88 6 5 5 3
0 0 0 0 0 0 0 0 0 0 0 0 0 0 0 0 0 0 0 0 0 0 0 0 20 97 52 78 5 80 92 0 16 100 100 100 100 100 100 100 100 100 100 95 95 17 5 5 4
0 0 0 0 0 0 0 0 0 0 0 0 0 0 0 0 0 0 0 0 0 0 0 13 38 97 100 82 73 100 100 45 66 78 100 100 100 100 100 100 100 100 100 100 100 79 5 5 4
0 0 0 0 0 0 0 0 0 0 0 0 0 0 0 0 0 0 0 0 0 0 0 0 8 100 72 100 96 96 100 19 99 0 100 100 100 100 100 100 100 100 100 100 100 65 60 5 5
0 0 0 0 0 0 0 0 0 0 0 0 0 0 0 0 0 0 0 0 0 0 0 0 14 15 62 100 100 100 100 17 99 0 72 100 100 100 100 100 100 100 100 100 100 100 94 12 5
0 0 0 0 0 0 0 0 0 0 0 0 0 0 0 0 0 0 0 0 11 0 0 0 0 0 48 100 100 100 100 54 97 0 15 100 100 100 100 100 100 100 100 100 100 100 91 8 5
0 0 0 0 0 0 0 0 0 0 0 0 0 0 0 0 0 0 0 0 3 0 0 0 0 0 92 100 100 100 100 100 97 2 0 100 100 100 100 100 100 100 100 100 100 100 93 9 5
0 0 0 2 0 0 0 0 0 0 0 0 0 0 0 0 0 0 0 0 0 0 0 0 0 0 100 100 100 100 100 100 97 5 0 100 100 100 100 100 100 100 100 100 100 100 100 5 31
0 0 0 2 0 0 0 0 0 0 0 0 0 0 0 0 0 0 0 0 0 4 0 0 1 50 100 100 100 100 100 100 72 4 0 100 100 100 100 100 100 100 100 100 100 100 99 14 100
2 0 0 0 0 0 0 0 0 0 0 0 0 0 0 0 0 0 0 0 0 0 18 54 100 100 100 100 100 100 100 100 60 5 4 39 95 100 100 100 100 100 100 100 100 100 100 84 100
3 0 0 0 0 0 0 0 0 0 0 0 0 0 0 0 0 0 0 0 0 36 94 100 100 100 100 100 100 100 100 100 47 71 62 87 60 100 100 100 100 100 100 100 100 100 100 100 100
5 5 0 0 0 0 0 0 5 3 0 0 0 0 0 0 0 0 0 0 100 100 100 100 100 100 100 100 100 100 100 100 80 100 100 100 84 100 100 100 100 100 100 100 100 100 100 100 89
0 6 77 12 5 0 0 0 4 5 2 0 0 0 0 0 0 0 2 48 100 100 100 100 100 100 100 100 100 100 100 100 100 100 100 100 100 100 100 100 100 100 100 100 100 100 100 100 49
0 5 5 3 5 0 0 0 0 4 0 0 0 0 0 0 0 0 15 55 100 100 100 100 100 100 100 100 100 100 100 100 88 100 100 100 100 100 100 100 100 100 100 100 100 100 100 89 82
0 0 0 5 5 5 1 4 0 5 0 2 5 0 0 0 0 0 0 86 100 100 100 100 100 100 100 100 100 100 100 100 98 100 100 100 100 100 100 100 100 100 100 100 100 100 100 100 81
3 0 4 4 0 5 5 1 0 12 4 0 0 0 0 0 0 0 34 100 100 100 100 100 100 100 100 100 100 100 100 100 100 100 100 100 100 100 100 100 100 100 100 100 100 100 100 100 100
0 4 5 2 1 40 0 0 0 2 89 2 0 0 0 0 0 0 0 98 100 100 100 100 100 100 100 100 100 100 100 100 100 100 100 100 100 100 100 100 100 100 100 100 100 100 100 92 88
4 71 53 32 82 26 3 1 0 5 2 78 3 0 0 0 0 0 0 62 100 100 100 100 100 100 100 100 100 100 100 100 100 100 100 100 100 100 100 100 100 100 100 100 100 100 100 98 100
0 3 5 46 56 3 0 2 0 0 0 2 8 3 0 0 0 0 0 26 100 100 100 100 100 100 100 100 100 100 100 100 100 100 100 100 100 100 100 100 100 100 100 100 100 100 100 99 96
1 4 3 0 0 5 0 0 0 0 0 5 14 5 4 0 0 0 0 0 77 100 100 100 100 100 100 100 100 100 100 100 100 100 100 100 100 100 100 100 100 100 100 100 100 100 100 100 100
46 39 95 7 23 3 0 0 0 0 0 0 2 14 5 2 0 0 0 0 0 33 100 100 100 100 100 100 100 100 100 100 100 100 100 100 100 100 100 100 100 100 100 100 100 100 100 82 100
100 100 100 100 39 4 1 0 0 0 0 0 0 0 0 4 0 0 0 0 0 9 80 100 100 100 100 100 100 100 100 100 100 100 100 100 100 100 100 100 100 96 100 100 100 100 74 66 100
100 100 90 100 93 75 51 1 2 3 0 0 5 0 0 0 0 0 0 0 0 2 100 98 100 100 100 100 100 100 100 100 100 100 100 100 100 100 100 100 100 100 100 92 97 100 99 100 76